"Pseudo-MPEC" for P115zVi

Created 2020 Sep 19 21:07:23 UT using Find_Orb

Click here for an explanation of pseudo-MPECs

 
 Astrometry: 
     P115zVi  C2020 09 12P8WIb]5/2;CGAL/crlio/evgAstrometryBmredacted;!8%rhqOF51
     P115zVi  C2020 09 12kYclick2qHv]d?+_kn#al3phereW/8yWm76eY-;J@'vi#3-vrlBgF51
     P115zVi  C2020 09 12o`N;sxL]jL:]=*#Q7rU1yQWe-S]forTexplanationuJI5R?/+klF51

Station data:
(F51) Pan-STARRS 1, Haleakala  (N20.707235 W156.255910)  US/Hawaii.
   Observers N. Primak, A. Schultz, S. Watters, J. Thiel, T. Goggia. Measurer
   PS1 Science Consortium. 1.8-m Ritchey-Chrétien + CCD.

Orbital elements:  P115zVi
   Perihelion 2020 Aug 18.069881 +/- 43.4 TT =  1:40:37 (JD 2459079.569881)
Epoch 2020 Sep 12.0 TT = JDT 2459104.5   Earth MOID: 0.0174   AutoNEOCP
M  22.49993515 +/- 24               (J2000 ecliptic)
n   0.90252015 +/- 0.413            Peri.  156.76767 +/- 60
a   1.06046931 +/- 0.323            Node   168.29111 +/- 30
e   0.0358702 +/- 0.262             Incl.    4.31657 +/- 11
P   1.09/398.88d           H 29.4   G  0.15   U 12.1  SR
q 1.02242997 +/- 0.221    Q 1.09850866 +/- 33.1
From 3 observations 2020 Sept. 12 (48.0 min); mean residual 0".04
Residuals in arcseconds: 
200912 F51  .02+  .02+    200912 F51  .05-  .07-    200912 F51  .04+  .05+    

Ephemerides (geocentric):
Date (UTC) HH   RA              Dec         delta   r     elong  mag " sig PA
---- -- -- --  -------------   -----------  ------ ------ -----  --- ---- ---
2020 09 19 21  23 39 25.165   -30 04 11.44  .02659 1.0277 151.0 22.8  47d 176
2020 09 19 22  23 39 39.590   -30 07 57.82  .02664 1.0277 150.9 22.8  47d 176
2020 09 19 23  23 39 53.984   -30 11 43.16  .02669 1.0277 150.8 22.8  47d 176
2020 09 20 00  23 40 08.348   -30 15 27.47  .02673 1.0277 150.8 22.8  47d 176
2020 09 20 01  23 40 22.682   -30 19 10.75  .02678 1.0277 150.7 22.8  47d 176
2020 09 20 02  23 40 36.985   -30 22 53.01  .02683 1.0278 150.6 22.8  47d 176
2020 09 20 03  23 40 51.258   -30 26 34.25  .02687 1.0278 150.5 22.8  47d 176
2020 09 20 04  23 41 05.501   -30 30 14.47  .02692 1.0278 150.5 22.8  47d 176
2020 09 20 05  23 41 19.714   -30 33 53.68  .02697 1.0278 150.4 22.8  47d 176
2020 09 20 06  23 41 33.897   -30 37 31.89  .02702 1.0278 150.3 22.8  47d 176
2020 09 20 07  23 41 48.050   -30 41 09.09  .02706 1.0278 150.2 22.9  47d 176
2020 09 20 08  23 42 02.172   -30 44 45.30  .02711 1.0278 150.2 22.9  47d 176
2020 09 20 09  23 42 16.265   -30 48 20.51  .02716 1.0278 150.1 22.9  47d 176
2020 09 20 10  23 42 30.328   -30 51 54.72  .02721 1.0279 150.0 22.9  47d 176
2020 09 20 11  23 42 44.361   -30 55 27.95  .02725 1.0279 149.9 22.9  47d 176
2020 09 20 12  23 42 58.364   -30 59 00.19  .02730 1.0279 149.9 22.9  47d 176
2020 09 20 13  23 43 12.337   -31 02 31.46  .02735 1.0279 149.8 22.9  47d 176
2020 09 20 14  23 43 26.280   -31 06 01.74  .02740 1.0279 149.7 22.9  47d 176
2020 09 20 15  23 43 40.194   -31 09 31.06  .02745 1.0279 149.6 22.9  47d 176
2020 09 20 16  23 43 54.079   -31 12 59.40  .02749 1.0279 149.6 22.9  47d 176
2020 09 20 17  23 44 07.933   -31 16 26.78  .02754 1.0279 149.5 22.9  47d 176
2020 09 20 18  23 44 21.759   -31 19 53.20  .02759 1.0280 149.4 22.9  47d 176
2020 09 20 19  23 44 35.554   -31 23 18.67  .02764 1.0280 149.4 22.9  47d 176
2020 09 20 20  23 44 49.321   -31 26 43.17  .02769 1.0280 149.3 22.9  47d 176
2020 09 20 21  23 45 03.057   -31 30 06.73  .02774 1.0280 149.2 22.9  47d 176
2020 09 20 22  23 45 16.765   -31 33 29.35  .02778 1.0280 149.1 22.9  47d 176
2020 09 20 23  23 45 30.443   -31 36 51.02  .02783 1.0280 149.1 22.9  47d 176
2020 09 21 00  23 45 44.092   -31 40 11.75  .02788 1.0280 149.0 23.0  47d 176
2020 09 21 01  23 45 57.712   -31 43 31.55  .02793 1.0280 148.9 23.0  47d 176
2020 09 21 02  23 46 11.303   -31 46 50.41  .02798 1.0281 148.9 23.0  47d 176
2020 09 21 03  23 46 24.864   -31 50 08.35  .02803 1.0281 148.8 23.0  47d 176
2020 09 21 04  23 46 38.397   -31 53 25.37  .02808 1.0281 148.7 23.0  47d 176
2020 09 21 05  23 46 51.900   -31 56 41.46  .02813 1.0281 148.6 23.0  47d 176
2020 09 21 06  23 47 05.375   -31 59 56.64  .02817 1.0281 148.6 23.0  47d 176
2020 09 21 07  23 47 18.821   -32 03 10.91  .02822 1.0281 148.5 23.0  47d 176
2020 09 21 08  23 47 32.238   -32 06 24.27  .02827 1.0281 148.4 23.0  47d 176
2020 09 21 09  23 47 45.626   -32 09 36.72  .02832 1.0282 148.4 23.0  47d 176
2020 09 21 10  23 47 58.985   -32 12 48.27  .02837 1.0282 148.3 23.0  47d 176
2020 09 21 11  23 48 12.315   -32 15 58.93  .02842 1.0282 148.2 23.0  47d 176
2020 09 21 12  23 48 25.617   -32 19 08.69  .02847 1.0282 148.2 23.0  47d 176
2020 09 21 13  23 48 38.891   -32 22 17.56  .02852 1.0282 148.1 23.0  47d 176
2020 09 21 14  23 48 52.135   -32 25 25.54  .02857 1.0282 148.0 23.0  47d 176
2020 09 21 15  23 49 05.352   -32 28 32.64  .02862 1.0282 148.0 23.0  47d 176
2020 09 21 16  23 49 18.539   -32 31 38.86  .02867 1.0282 147.9 23.0  47d 176
2020 09 21 17  23 49 31.699   -32 34 44.21  .02872 1.0283 147.8 23.0  47d 176
2020 09 21 18  23 49 44.830   -32 37 48.68  .02877 1.0283 147.8 23.1  47d 176
2020 09 21 19  23 49 57.932   -32 40 52.29  .02882 1.0283 147.7 23.1  47d 176
2020 09 21 20  23 50 11.007   -32 43 55.03  .02887 1.0283 147.6 23.1  47d 176